Regional Weather Roundup
Issued by NWS

Home | Current Version | Previous Version | Text Only | Print | Product List | Glossary Off
Versions: 1 2 3 4 5 6 7 8 9 10 11 12 13 14 15 16 17 18 19 20 21 22 23 24 25 26 27 28 29 30 31 32 33 34 35 36 37 38 39 40 41 42 43 44 45 46 47 48 49 50

000
ASUS43 KLOT 240209
RWRIL

ILLINOIS REGIONAL WEATHER ROUNDUP
NATIONAL WEATHER SERVICE CHICAGO/ROMEOVILLE IL
900 PM CDT FRI JUN 23 2017

NOTE: "FAIR" INDICATES FEW OR NO CLOUDS BELOW 12,000 FEET WITH NO
SIGNIFICANT WEATHER AND/OR OBSTRUCTIONS TO VISIBILITY.

* THESE STATIONS ARE NOT UNDER NWS QUALITY CONTROL. THEY ALSO MAY NOT
  REPORT WEATHER SUCH AS PRECIPITATION OR FOG.

ILZ001-002-007-009-015-016-024-240300-
NORTHWEST ILLINOIS

CITY           SKY/WX    TMP DP  RH WIND       PRES   REMARKS
MOLINE         CLEAR     71  55  56 NW14      29.87R
STERLING*      CLEAR     68  55  63 NW13      29.85
SAVANNA*       CLEAR     69  56  64 W8        29.86R
$$

ILZ003-004-008-010-011-017-018-240300-
NORTH CENTRAL ILLINOIS

CITY           SKY/WX    TMP DP  RH WIND       PRES   REMARKS
ROCKFORD       CLEAR     70  52  52 NW15      29.83R
FREEPORT*      CLEAR     66  54  65 W9        29.86R
ROCHELLE*      CLEAR     67  56  69 W9        29.84R
DE KALB*       CLEAR     67  55  63 NW14      29.83R
PERU*          CLEAR     68  55  63 NW12      29.84R
$$

ILZ005-006-012>014-019>023-240300-
NORTHEAST ILLINOIS

CITY           SKY/WX    TMP DP  RH WIND       PRES   REMARKS
CHICAGO-OHARE  PTCLDY    73  54  51 W13       29.76R
CHICAGO-MIDWAY PTCLDY    75  53  46 NW12      29.76R
AURORA         CLEAR     68  57  68 W15       29.81R
LANSING*       PTCLDY    74  51  44 NW12G17   29.76R
JOLIET*        CLOUDY    73  57  56 W3        29.79R
WAUKEGAN       CLEAR     70  55  59 NW6       29.75R
DUPAGE AIRPORT CLEAR     70  56  61 NW10      29.78R
WHEELING       CLEAR     73  55  53 NW12      29.77R
MORRIS*        CLEAR     69  58  67 NW13      29.79R
ROMEOVILLE*    CLOUDY    71  53  52 NW14G22   29.79R
NORTHERLY ISL    N/A     75  49  39 NW8         N/A
$$

LMZ740>746-240300-
SOUTHERN LAKE MICHIGAN

STATION/POSITION SKY/WX   TEMP    WIND        PRES    VSBY  WAVE
                          AIR SEA DIR/SP/G                  HT/PER
                          (F)     (DEG/KT/KT) (MB)    (MI)  (FT/S)
SOUTHERN BUOY              67 63  350/  8/ 10 1006.8R         0
WILMETTE HARBOR            70 66  290/  8/ 10   N/A           2/ 3
HARRISON CRIB              76     300/ 18/ 20   N/A
BURNHAM HARBOR             74                   N/A
CALUMET HARBOR             76     300/ 14/ 19 1007.1R
BURNS HARBOR               72     320/  9/ 17 1008.1
MICHIGAN CITY              73     190/  5/  5   N/A
MICHIGAN CITY 6N           71 69  280/  2/  4   N/A           1
ST. JOSEPH                 70 69  260/  6/  8 1007.0          1
$$

ILZ025>027-034>036-040-047-049-050-058-095>099-240300-
WEST-CENTRAL ILLINOIS

CITY           SKY/WX    TMP DP  RH WIND       PRES   REMARKS
QUINCY         CLEAR     71  55  56 NW14      29.91R
GALESBURG*     CLEAR     67  55  64 W5        29.90R
MACOMB*        CLEAR     67  55  66 NW10      29.92R
JACKSONVILLE*  CLOUDY    72  55  54 NW9       29.89R
PITTSFIELD*    CLEAR     73  56  56 NW8       29.91R
$$

ILZ028>032-037-038-041>044-048-051>054-059>061-240300-
CENTRAL ILLINOIS

CITY           SKY/WX    TMP DP  RH WIND       PRES   REMARKS
PONTIAC        CLOUDY    70  60  70 W12       29.84R
BLOOMINGTON    PTCLDY    71  56  58 NW18      29.86R
DECATUR        CLOUDY    76  56  49 NW20G28   29.84R
PEORIA         CLEAR     70  54  56 NW8       29.86R
LACON*         CLEAR     70  56  60 NW10G21   29.84R
LINCOLN*       CLOUDY    73  57  56 NW7       29.86R
SPRINGFIELD    PTCLDY    76  56  49 NW14G23   29.86R
TAYLORVILLE    PTCLDY    72  58  62 W7        29.85R
$$

ILZ033-039-045-046-055>057-062-063-240300-
EAST-CENTRAL ILLINOIS

CITY           SKY/WX    TMP DP  RH WIND       PRES   REMARKS
CHAMPAIGN      PTCLDY    70  58  65 W3        29.82R
RANTOUL*       MOCLDY    74  60  60 NW10G20   29.82R
MATTOON        PTCLDY    68  63  84 W3        29.83R
PARIS*         CLOUDY    68  62  83 CALM      29.83R
$$

ILZ079-100>102-240300-
SOUTHWEST ILLINOIS

CITY           SKY/WX    TMP DP  RH WIND       PRES   REMARKS
ALTON          MOCLDY    70  63  78 W7        29.88R
BELLEVILLE     CLOUDY    74  59  59 W5        29.89R
CAHOKIA*       CLOUDY    77  54  44 NW7       29.88R
SPARTA*        CLOUDY    74  59  59 CALM      29.90R
$$

ILZ064>066-069>071-074>076-080>082-084>086-088>090-092>094-240300-
SOUTH-CENTRAL ILLINOIS

CITY           SKY/WX    TMP DP  RH WIND       PRES   REMARKS
CARBONDALE     CLOUDY    70  67  90 W3        29.87R
CAIRO*         CLOUDY    75  66  72 NW6       29.87R
EFFINGHAM*     MOCLDY    70  64  81 CALM      29.86R
MARION         CLOUDY    72  68  88 CALM      29.88R
MT. VERNON     CLOUDY    67  64  90 CALM      29.87R
CENTRALIA*     PTCLDY    70  65  82 W5        29.86R
SALEM*         PTCLDY    72  62  71 CALM      29.86R
METROPOLIS*    CLOUDY    73  71  91 W3        29.87R
$$

ILZ067-068-072-073-078-083-087-091-240300-
SOUTHEAST ILLINOIS

CITY           SKY/WX    TMP DP  RH WIND       PRES   REMARKS
LAWRENCEVILLE  CLOUDY    72  69  90 NW5       29.83R
FLORA*         CLOUDY    73  63  71 NW6       29.85R
FAIRFIELD*     CLOUDY    71  66  86 CALM      29.84R
HARRISBURG*    CLOUDY    73  67  82 N3        29.87R
ROBINSON*      CLOUDY    69  65  88 W5        29.83R
CARMI*         CLOUDY    72  69  89 W6        29.85R
$$

ABBREVIATIONS USED IN REMARKS
   TC - TEMPERATURE IN CELSIUS
  WCI - WIND CHILL INDEX
   HX - HEAT INDEX
  VSB - VISIBILITY
$$




USA.gov is the U.S. government's official web portal to all federal, state and local government web resources and services.